OpenBCM V2.0.2 (Linux)

Packet Radio Mailbox

IZ3LSV

[San Dona' di P. JN]

 Login: GUEST





  
CX2SA  > KEPS     31.12.07 00:17l 138 Lines 3594 Bytes #999 (0) @ AMSAT
BID : ORB07354.O
Read: GUEST
Subj: Orbital Elements  07354.OSCAR
Path: IZ3LSV<IW2OAZ<IK2XDE<DB0RES<DK0WUE<SP7MGD<CX2SA
Sent: 071221/0233Z @:CX2SA.LAV.URY.SA #:26458 [Minas] FBB7.00e $:ORB07354.O
From: CX2SA@CX2SA.LAV.URY.SA
To  : KEPS@AMSAT


HR AMSAT ORBITAL ELEMENTS FOR OSCAR SATELLITES
FROM WA5QGD FORT WORTH,TX December 20, 2007
Send Subscribe/unsubscribe to KEPS at 
http://www.amsat.org/mailman/listinfo/keps
BID: ORB07354.O
TO ALL RADIO AMATEURS BT

Satellite: PO-63
Catalog number: 29712
Epoch time:      07353.78448119
Element set:    0017
Inclination:      097.9019 deg
RA of node:       050.1700 deg
Eccentricity:    0.0013183
Arg of perigee:   244.9996 deg
Mean anomaly:     114.9837 deg
Mean motion:   14.79947617 rev/day
Decay rate:       7.78e-06 rev/day^2
Epoch rev:           05078
Checksum:              345

Satellite: VO-52
Catalog number: 28650
Epoch time:      07353.25498731
Element set:     807
Inclination:      097.8131 deg
RA of node:       059.6312 deg
Eccentricity:    0.0027391
Arg of perigee:   013.2644 deg
Mean anomaly:     346.9255 deg
Mean motion:   14.81397531 rev/day
Decay rate:        8.6e-07 rev/day^2
Epoch rev:           14181
Checksum:              313

Satellite: AO-40
Catalog number: 26609
Epoch time:      07351.47294093
Element set:     979
Inclination:      007.1448 deg
RA of node:       106.6204 deg
Eccentricity:    0.7931490
Arg of perigee:   032.8942 deg
Mean anomaly:     357.2143 deg
Mean motion:   01.25583130 rev/day
Decay rate:       -9.7e-07 rev/day^2
Epoch rev:            3274
Checksum:              307

Satellite: SO-33
Catalog number: 25509
Epoch time:      07353.77977827
Element set:    0089
Inclination:      031.4318 deg
RA of node:       256.4182 deg
Eccentricity:    0.0355847
Arg of perigee:   249.8599 deg
Mean anomaly:     106.3411 deg
Mean motion:   14.28187474 rev/day
Decay rate:       -9.6e-07 rev/day^2
Epoch rev:           47780
Checksum:              357

Satellite: FO-29
Catalog number: 24278
Epoch time:      07353.89886707
Element set:     660
Inclination:      098.5781 deg
RA of node:       288.8168 deg
Eccentricity:    0.0350476
Arg of perigee:   322.3889 deg
Mean anomaly:     035.3197 deg
Mean motion:   13.52934624 rev/day
Decay rate:       -5.4e-07 rev/day^2
Epoch rev:           56001
Checksum:              356

Satellite: RS-15
Catalog number: 23439
Epoch time:      07353.70335505
Element set:    0122
Inclination:      064.8184 deg
RA of node:       066.9081 deg
Eccentricity:    0.0152889
Arg of perigee:   156.9823 deg
Mean anomaly:     203.8045 deg
Mean motion:   11.27552489 rev/day
Decay rate:       -3.9e-07 rev/day^2
Epoch rev:           53461
Checksum:              315

Satellite: UO-11
Catalog number: 14781
Epoch time:      07353.49023789
Element set:    0549
Inclination:      098.1749 deg
RA of node:       019.6175 deg
Eccentricity:    0.0008171
Arg of perigee:   298.9935 deg
Mean anomaly:     061.0432 deg
Mean motion:   14.79602255 rev/day
Decay rate:      -1.27e-06 rev/day^2
Epoch rev:           27713
Checksum:              328

Satellite: AO-10
Catalog number: 14129
Epoch time:      07353.10457287
Element set:     452
Inclination:      025.9582 deg
RA of node:       240.1837 deg
Eccentricity:    0.6045084
Arg of perigee:   082.6724 deg
Mean anomaly:     338.2003 deg
Mean motion:   02.05872292 rev/day
Decay rate:      -1.99e-06 rev/day^2
Epoch rev:           18437
Checksum:              302

Satellite: AO-07
Catalog number: 07530
Epoch time:      07353.53193531
Element set:    0057
Inclination:      101.4918 deg
RA of node:       025.9165 deg
Eccentricity:    0.0011821
Arg of perigee:   254.6209 deg
Mean anomaly:     105.3559 deg
Mean motion:   12.53573149 rev/day
Decay rate:       -2.8e-07 rev/day^2
Epoch rev:           51434
Checksum:              282



Read previous mail | Read next mail


 01.05.2026 18:15:40lGo back Go up